Wetterdaten: Freitag, 21.06.2013
Datum Zeit Temperatur Luftfeuchte Luftdruck Regen Wind Richtung Richtung Taupunkt Windchill Windben
21.06.2013 00:00 16,0 C 70 % 1018,1 hPa 0,0 l/m 13,7 km/h (3 Bft) SW 225 10,5 C 12,5 C 16,7 km/h (3 Bft)
21.06.2013 00:05 16,0 C 70 % 1018,5 hPa 0,0 l/m 12,6 km/h (3 Bft) N 360 10,5 C 12,9 C 17,4 km/h (3 Bft)
21.06.2013 00:11 16,0 C 70 % 1018,5 hPa 0,0 l/m 12,6 km/h (3 Bft) N 360 10,5 C 12,9 C 16,9 km/h (3 Bft)
21.06.2013 00:15 16,0 C 70 % 1018,5 hPa 0,0 l/m 12,6 km/h (3 Bft) N 360 10,5 C 12,9 C 16,9 km/h (3 Bft)
21.06.2013 00:20 15,9 C 70 % 1018,5 hPa 0,0 l/m 15,9 km/h (3 Bft) S-SW 202 10,4 C 11,3 C 33,5 km/h (5 Bft)
21.06.2013 00:25 15,8 C 70 % 1019,1 hPa 0,0 l/m 15,3 km/h (3 Bft) O-SO 112 10,3 C 11,5 C 18,8 km/h (3 Bft)
21.06.2013 00:30 15,8 C 69 % 1019,1 hPa 0,0 l/m 13,4 km/h (3 Bft) SW 225 10,1 C 12,1 C 8,0 km/h (2 Bft)
21.06.2013 00:31 15,8 C 69 % 1019,1 hPa 0,0 l/m 15,4 km/h (3 Bft) S-SW 202 10,1 C 11,2 C 26,2 km/h (4 Bft)
21.06.2013 00:36 15,6 C 69 % 1019,1 hPa 0,0 l/m 15,1 km/h (3 Bft) S 180 9,9 C 11,2 C 24,0 km/h (4 Bft)
21.06.2013 00:41 15,6 C 69 % 1019,6 hPa 0,0 l/m 15,0 km/h (3 Bft) S-SW 202 9,9 C 11,1 C 23,7 km/h (4 Bft)
21.06.2013 00:46 15,5 C 69 % 1019,6 hPa 0,0 l/m 14,8 km/h (3 Bft) W-SW 247 9,8 C 11,1 C 18,0 km/h (3 Bft)
21.06.2013 00:51 15,5 C 68 % 1019,6 hPa 0,0 l/m 14,2 km/h (3 Bft) S 180 9,6 C 11,5 C 9,8 km/h (2 Bft)
21.06.2013 00:56 15,4 C 69 % 1019,6 hPa 0,0 l/m 11,7 km/h (2 Bft) SO 135 9,7 C 12,4 C 6,4 km/h (2 Bft)
21.06.2013 01:01 15,1 C 71 % 1020,7 hPa 0,0 l/m 9,2 km/h (2 Bft) O-SO 112 9,9 C 13,2 C 13,2 km/h (3 Bft)
21.06.2013 01:06 14,4 C 74 % 1020,7 hPa 0,0 l/m 6,6 km/h (2 Bft) W-SW 247 9,8 C 14,0 C 2,7 km/h (1 Bft)
21.06.2013 01:11 13,9 C 79 % 1020,7 hPa 0,0 l/m 6,8 km/h (2 Bft) SO 135 10,3 C 13,1 C 5,0 km/h (1 Bft)
21.06.2013 01:16 13,3 C 85 % 1020,7 hPa 0,0 l/m 7,7 km/h (2 Bft) S-SW 202 10,8 C 11,5 C 10,1 km/h (2 Bft)
21.06.2013 01:21 12,9 C 87 % 1020,6 hPa 0,0 l/m 7,9 km/h (2 Bft) S 180 10,8 C 10,9 C 12,4 km/h (3 Bft)
21.06.2013 01:26 12,6 C 88 % 1020,6 hPa 0,0 l/m 5,6 km/h (1 Bft) SO 135 10,7 C 12,2 C 4,2 km/h (1 Bft)
21.06.2013 01:31 12,5 C 89 % 1020,6 hPa 0,0 l/m 4,2 km/h (1 Bft) S-SO 157 10,7 C 12,3 C 12,7 km/h (3 Bft)
21.06.2013 01:36 12,5 C 89 % 1020,6 hPa 0,0 l/m 3,2 km/h (1 Bft) S-SW 202 10,7 C 12,3 C 4,8 km/h (1 Bft)
21.06.2013 01:40 12,5 C 89 % 1020,6 hPa 0,0 l/m 3,2 km/h (1 Bft) S-SW 202 10,7 C 12,3 C 4,8 km/h (1 Bft)
21.06.2013 01:44 12,4 C 90 % 1021,0 hPa 0,0 l/m 4,0 km/h (1 Bft) SO 135 10,8 C 12,3 C 9,8 km/h (2 Bft)
21.06.2013 01:45 12,4 C 90 % 1021,0 hPa 0,0 l/m 4,0 km/h (1 Bft) SO 135 10,8 C 12,3 C 9,8 km/h (2 Bft)
21.06.2013 01:50 12,5 C 90 % 1021,0 hPa 0,0 l/m 4,7 km/h (1 Bft) SO 135 10,9 C 12,5 C 4,2 km/h (1 Bft)
21.06.2013 01:55 12,4 C 90 % 1021,0 hPa 0,0 l/m 4,0 km/h (1 Bft) S 180 10,8 C 12,7 C 6,1 km/h (2 Bft)
21.06.2013 02:00 12,5 C 91 % 1021,0 hPa 0,0 l/m 2,4 km/h (1 Bft) SO 135 11,1 C 12,8 C 4,5 km/h (1 Bft)
21.06.2013 02:05 12,6 C 91 % 1020,5 hPa 0,0 l/m 3,4 km/h (1 Bft) SW 225 11,2 C 12,9 C 5,1 km/h (1 Bft)
21.06.2013 02:10 12,6 C 91 % 1020,5 hPa 0,0 l/m 3,9 km/h (1 Bft) O 90 11,2 C 13,0 C 3,9 km/h (1 Bft)
21.06.2013 02:15 12,6 C 91 % 1020,5 hPa 0,0 l/m 3,7 km/h (1 Bft) S 180 11,2 C 13,0 C 4,5 km/h (1 Bft)
21.06.2013 02:20 12,6 C 91 % 1020,5 hPa 0,0 l/m 4,3 km/h (1 Bft) O 90 11,2 C 13,0 C 6,3 km/h (2 Bft)
21.06.2013 02:25 12,6 C 90 % 1020,3 hPa 0,0 l/m 4,3 km/h (1 Bft) W-SW 247 11,0 C 13,1 C 4,5 km/h (1 Bft)
21.06.2013 02:30 12,6 C 91 % 1020,3 hPa 0,0 l/m 3,7 km/h (1 Bft) S 180 11,2 C 13,1 C 4,0 km/h (1 Bft)
21.06.2013 02:35 12,6 C 91 % 1020,3 hPa 0,0 l/m 4,5 km/h (1 Bft) S-SO 157 11,2 C 13,2 C 6,3 km/h (2 Bft)
21.06.2013 02:40 12,7 C 89 % 1020,3 hPa 0,0 l/m 6,9 km/h (2 Bft) S-SW 202 10,9 C 12,6 C 18,5 km/h (3 Bft)
21.06.2013 02:45 12,7 C 89 % 1020,7 hPa 0,0 l/m 7,7 km/h (2 Bft) S 180 10,9 C 12,2 C 10,6 km/h (2 Bft)
21.06.2013 02:50 12,7 C 88 % 1020,7 hPa 0,0 l/m 6,8 km/h (2 Bft) SO 135 10,8 C 13,1 C 2,1 km/h (1 Bft)
21.06.2013 02:55 12,7 C 88 % 1020,7 hPa 0,0 l/m 5,5 km/h (1 Bft) S-SW 202 10,8 C 13,5 C 4,5 km/h (1 Bft)
21.06.2013 03:00 12,6 C 89 % 1020,7 hPa 0,0 l/m 3,7 km/h (1 Bft) S 180 10,8 C 13,2 C 5,8 km/h (2 Bft)
21.06.2013 03:05 12,4 C 89 % 1020,9 hPa 0,0 l/m 3,9 km/h (1 Bft) S 180 10,6 C 12,7 C 4,8 km/h (1 Bft)
21.06.2013 03:10 12,0 C 91 % 1020,9 hPa 1,4 l/m 6,4 km/h (2 Bft) S 180 10,6 C 11,8 C 7,2 km/h (2 Bft)
21.06.2013 03:15 11,8 C 91 % 1020,9 hPa 0,7 l/m 7,9 km/h (2 Bft) W-SW 247 10,4 C 10,2 C 8,5 km/h (2 Bft)
21.06.2013 03:20 11,6 C 92 % 1020,9 hPa 1,4 l/m 7,2 km/h (2 Bft) O-SO 112 10,3 C 10,6 C 3,2 km/h (1 Bft)
21.06.2013 03:25 11,6 C 92 % 1020,9 hPa 0,7 l/m 4,7 km/h (1 Bft) N-NW 337 10,3 C 11,5 C 2,6 km/h (1 Bft)
21.06.2013 03:30 11,6 C 93 % 1020,9 hPa 0,0 l/m 2,6 km/h (1 Bft) SO 135 10,5 C 11,5 C 3,7 km/h (1 Bft)
21.06.2013 03:31 11,6 C 93 % 1020,9 hPa 0,0 l/m 2,6 km/h (1 Bft) SO 135 10,5 C 11,4 C 3,7 km/h (1 Bft)
21.06.2013 03:36 11,6 C 93 % 1020,9 hPa 0,0 l/m 2,3 km/h (1 Bft) S 180 10,5 C 11,4 C 1,9 km/h (1 Bft)
21.06.2013 03:38 11,6 C 93 % 1020,9 hPa 0,0 l/m 2,3 km/h (1 Bft) S 180 10,5 C 11,4 C 1,9 km/h (1 Bft)
21.06.2013 03:40 11,6 C 93 % 1020,9 hPa 0,0 l/m 2,3 km/h (1 Bft) S 180 10,5 C 11,4 C 1,9 km/h (1 Bft)
21.06.2013 03:45 11,6 C 93 % 1020,9 hPa 0,0 l/m 1,8 km/h (1 Bft) SO 135 10,5 C 11,5 C 1,8 km/h (1 Bft)
21.06.2013 03:50 11,6 C 93 % 1020,9 hPa 0,0 l/m 0,6 km/h (0 Bft) O 90 10,5 C 11,5 C 0,0 km/h (0 Bft)
21.06.2013 03:55 11,6 C 93 % 1020,9 hPa 0,0 l/m 0,5 km/h (0 Bft) S-SO 157 10,5 C 11,5 C 0,0 km/h (0 Bft)
21.06.2013 04:00 11,6 C 94 % 1020,9 hPa 0,0 l/m 0,6 km/h (0 Bft) O 90 10,7 C 11,5 C 0,0 km/h (0 Bft)
21.06.2013 04:05 11,6 C 94 % 1020,4 hPa 0,0 l/m 1,1 km/h (1 Bft) NO 45 10,7 C 11,5 C 0,0 km/h (0 Bft)
21.06.2013 04:10 11,6 C 94 % 1020,4 hPa 0,0 l/m 0,8 km/h (0 Bft) NO 45 10,7 C 11,5 C 0,0 km/h (0 Bft)
21.06.2013 04:15 11,6 C 94 % 1020,4 hPa 0,0 l/m 0,2 km/h (0 Bft) W-SW 247 10,7 C 11,5 C 0,0 km/h (0 Bft)
21.06.2013 04:20 11,6 C 94 % 1020,4 hPa 0,0 l/m 0,5 km/h (0 Bft) NO 45 10,7 C 11,5 C 4,0 km/h (1 Bft)
21.06.2013 04:25 11,7 C 94 % 1020,4 hPa 0,0 l/m 1,4 km/h (1 Bft) W-NW 292 10,8 C 11,5 C 2,1 km/h (1 Bft)
21.06.2013 04:30 11,7 C 94 % 1020,4 hPa 0,0 l/m 2,1 km/h (1 Bft) NO 45 10,8 C 11,6 C 3,7 km/h (1 Bft)
21.06.2013 04:35 11,7 C 94 % 1020,4 hPa 0,0 l/m 1,6 km/h (1 Bft) O 90 10,8 C 11,6 C 0,0 km/h (0 Bft)
21.06.2013 04:40 11,7 C 94 % 1020,4 hPa 0,0 l/m 1,6 km/h (1 Bft) O 90 10,8 C 11,7 C 3,4 km/h (1 Bft)
21.06.2013 04:45 11,8 C 95 % 1020,5 hPa 0,0 l/m 1,4 km/h (1 Bft) N 360 11,0 C 11,7 C 2,9 km/h (1 Bft)
21.06.2013 04:50 11,8 C 95 % 1020,5 hPa 0,0 l/m 1,8 km/h (1 Bft) N-NO 22 11,0 C 11,7 C 0,0 km/h (0 Bft)
21.06.2013 04:55 11,8 C 95 % 1020,5 hPa 0,0 l/m 1,0 km/h (0 Bft) S 180 11,0 C 11,7 C 1,9 km/h (1 Bft)
21.06.2013 05:00 11,9 C 95 % 1020,5 hPa 0,0 l/m 0,5 km/h (0 Bft) S-SO 157 11,1 C 11,8 C 0,0 km/h (0 Bft)
21.06.2013 05:05 11,9 C 95 % 1020,3 hPa 0,0 l/m 0,5 km/h (0 Bft) SO 135 11,1 C 11,8 C 0,0 km/h (0 Bft)
21.06.2013 05:10 11,9 C 95 % 1020,3 hPa 0,0 l/m 0,0 km/h (0 Bft) NO 45 11,1 C 11,9 C 0,0 km/h (0 Bft)
21.06.2013 05:15 11,9 C 95 % 1020,3 hPa 0,0 l/m 0,0 km/h (0 Bft) SO 135 11,1 C 11,9 C 0,0 km/h (0 Bft)
21.06.2013 05:20 12,0 C 95 % 1020,3 hPa 0,0 l/m 0,0 km/h (0 Bft) O 90 11,2 C 11,9 C 0,0 km/h (0 Bft)
21.06.2013 05:25 12,0 C 95 % 1020,4 hPa 0,0 l/m 0,2 km/h (0 Bft) W-NW 292 11,2 C 11,9 C 0,0 km/h (0 Bft)
21.06.2013 05:30 12,0 C 95 % 1020,4 hPa 0,0 l/m 0,2 km/h (0 Bft) S 180 11,2 C 12,0 C 0,0 km/h (0 Bft)
21.06.2013 05:35 12,1 C 95 % 1020,4 hPa 0,0 l/m 0,2 km/h (0 Bft) W-SW 247 11,3 C 12,0 C 2,1 km/h (1 Bft)
21.06.2013 05:40 12,1 C 95 % 1020,4 hPa 0,0 l/m 0,3 km/h (0 Bft) O 90 11,3 C 12,0 C 0,0 km/h (0 Bft)
21.06.2013 05:45 12,1 C 95 % 1020,4 hPa 0,0 l/m 0,3 km/h (0 Bft) O 90 11,3 C 12,0 C 0,0 km/h (0 Bft)
21.06.2013 05:50 12,1 C 95 % 1020,4 hPa 0,0 l/m 0,2 km/h (0 Bft) O 90 11,3 C 12,0 C 0,0 km/h (0 Bft)
21.06.2013 05:55 12,1 C 95 % 1020,4 hPa 0,0 l/m 0,2 km/h (0 Bft) NO 45 11,3 C 12,1 C 2,3 km/h (1 Bft)
21.06.2013 06:00 12,1 C 95 % 1020,4 hPa 0,0 l/m 0,5 km/h (0 Bft) O-NO 67 11,3 C 12,1 C 0,0 km/h (0 Bft)
21.06.2013 06:05 12,1 C 95 % 1020,4 hPa 0,0 l/m 0,5 km/h (0 Bft) O 90 11,3 C 12,1 C 1,6 km/h (1 Bft)
21.06.2013 06:10 12,2 C 95 % 1020,4 hPa 0,0 l/m 0,8 km/h (0 Bft) O 90 11,4 C 12,2 C 1,8 km/h (1 Bft)
21.06.2013 06:15 12,3 C 95 % 1020,4 hPa 0,0 l/m 1,0 km/h (0 Bft) O 90 11,5 C 12,3 C 0,0 km/h (0 Bft)
21.06.2013 06:20 12,4 C 95 % 1020,4 hPa 0,0 l/m 0,2 km/h (0 Bft) O-NO 67 11,6 C 12,4 C 0,0 km/h (0 Bft)
21.06.2013 06:25 12,4 C 95 % 1020,5 hPa 0,0 l/m 0,0 km/h (0 Bft) O 90 11,6 C 12,4 C 0,0 km/h (0 Bft)
21.06.2013 06:30 12,5 C 95 % 1020,5 hPa 0,0 l/m 0,0 km/h (0 Bft) O-SO 112 11,7 C 12,4 C 0,0 km/h (0 Bft)
21.06.2013 06:35 12,5 C 95 % 1020,5 hPa 0,0 l/m 0,0 km/h (0 Bft) O-SO 112 11,7 C 12,5 C 0,0 km/h (0 Bft)
21.06.2013 06:40 12,6 C 95 % 1020,5 hPa 0,0 l/m 0,0 km/h (0 Bft) S 180 11,8 C 12,6 C 0,0 km/h (0 Bft)
21.06.2013 06:45 12,7 C 95 % 1019,9 hPa 0,0 l/m 0,2 km/h (0 Bft) S 180 11,9 C 12,7 C 0,0 km/h (0 Bft)
21.06.2013 06:50 12,7 C 95 % 1019,9 hPa 0,0 l/m 0,2 km/h (0 Bft) O 90 11,9 C 12,8 C 0,0 km/h (0 Bft)
21.06.2013 06:55 12,7 C 95 % 1019,9 hPa 0,0 l/m 0,0 km/h (0 Bft) O 90 11,9 C 12,9 C 0,0 km/h (0 Bft)
21.06.2013 07:00 12,8 C 95 % 1019,9 hPa 0,0 l/m 0,0 km/h (0 Bft) O 90 12,0 C 13,0 C 0,0 km/h (0 Bft)
21.06.2013 07:05 12,8 C 95 % 1020,4 hPa 0,0 l/m 0,0 km/h (0 Bft) O-NO 67 12,0 C 13,0 C 0,0 km/h (0 Bft)
21.06.2013 07:10 12,9 C 95 % 1020,4 hPa 0,0 l/m 0,0 km/h (0 Bft) O-SO 112 12,1 C 13,2 C 0,0 km/h (0 Bft)
21.06.2013 07:15 12,8 C 95 % 1020,4 hPa 0,0 l/m 0,2 km/h (0 Bft) N-NO 22 12,0 C 13,2 C 0,0 km/h (0 Bft)
21.06.2013 07:20 13,0 C 94 % 1020,4 hPa 0,0 l/m 0,3 km/h (0 Bft) S 180 12,1 C 13,3 C 0,0 km/h (0 Bft)
21.06.2013 07:25 13,1 C 94 % 1020,4 hPa 0,0 l/m 0,6 km/h (0 Bft) NO 45 12,2 C 13,4 C 3,1 km/h (1 Bft)
21.06.2013 07:30 13,1 C 94 % 1020,4 hPa 0,0 l/m 1,1 km/h (1 Bft) W-SW 247 12,2 C 13,5 C 1,9 km/h (1 Bft)
21.06.2013 07:35 13,1 C 94 % 1020,4 hPa 0,0 l/m 1,0 km/h (0 Bft) O-SO 112 12,2 C 13,7 C 2,4 km/h (1 Bft)
21.06.2013 07:40 13,2 C 94 % 1020,4 hPa 0,0 l/m 0,5 km/h (0 Bft) SO 135 12,3 C 13,8 C 0,0 km/h (0 Bft)
21.06.2013 07:45 13,2 C 94 % 1020,3 hPa 0,0 l/m 0,5 km/h (0 Bft) O-NO 67 12,3 C 14,0 C 2,7 km/h (1 Bft)
21.06.2013 07:50 13,2 C 94 % 1020,3 hPa 0,0 l/m 0,8 km/h (0 Bft) W 270 12,3 C 14,1 C 0,0 km/h (0 Bft)
21.06.2013 07:55 13,5 C 94 % 1020,3 hPa 0,0 l/m 1,0 km/h (0 Bft) S-SW 202 12,6 C 14,2 C 0,0 km/h (0 Bft)
21.06.2013 08:00 13,6 C 94 % 1020,3 hPa 0,0 l/m 0,3 km/h (0 Bft) W 270 12,7 C 14,4 C 0,0 km/h (0 Bft)
21.06.2013 08:05 13,7 C 94 % 1020,4 hPa 0,0 l/m 0,6 km/h (0 Bft) NO 45 12,8 C 14,6 C 1,8 km/h (1 Bft)
21.06.2013 08:10 13,9 C 94 % 1020,4 hPa 0,0 l/m 0,8 km/h (0 Bft) SW 225 12,9 C 14,8 C 1,8 km/h (1 Bft)
21.06.2013 08:15 14,0 C 94 % 1020,4 hPa 0,0 l/m 0,8 km/h (0 Bft) S-SW 202 13,0 C 15,0 C 0,0 km/h (0 Bft)
21.06.2013 08:20 14,1 C 93 % 1020,4 hPa 0,0 l/m 0,8 km/h (0 Bft) O 90 13,0 C 15,2 C 1,9 km/h (1 Bft)
21.06.2013 08:25 14,3 C 93 % 1020,4 hPa 0,0 l/m 0,5 km/h (0 Bft) N-NO 22 13,2 C 15,3 C 0,0 km/h (0 Bft)
21.06.2013 08:30 14,2 C 93 % 1020,4 hPa 0,0 l/m 0,6 km/h (0 Bft) O 90 13,1 C 15,5 C 2,3 km/h (1 Bft)
21.06.2013 08:35 14,3 C 93 % 1020,4 hPa 0,0 l/m 1,0 km/h (0 Bft) S 180 13,2 C 15,6 C 1,6 km/h (1 Bft)
21.06.2013 08:40 14,3 C 93 % 1020,4 hPa 0,0 l/m 0,6 km/h (0 Bft) O 90 13,2 C 15,8 C 0,0 km/h (0 Bft)
21.06.2013 08:45 14,7 C 93 % 1020,5 hPa 0,0 l/m 0,2 km/h (0 Bft) S-SO 157 13,6 C 16,0 C 0,0 km/h (0 Bft)
21.06.2013 08:50 14,6 C 92 % 1020,5 hPa 0,0 l/m 0,5 km/h (0 Bft) N-NW 337 13,3 C 16,2 C 1,6 km/h (1 Bft)
21.06.2013 08:55 14,7 C 92 % 1020,5 hPa 0,0 l/m 1,3 km/h (1 Bft) N-NO 22 13,4 C 16,3 C 3,1 km/h (1 Bft)
21.06.2013 09:00 14,8 C 92 % 1020,5 hPa 0,0 l/m 1,1 km/h (1 Bft) O 90 13,5 C 16,3 C 0,0 km/h (0 Bft)
21.06.2013 09:05 14,9 C 91 % 1020,6 hPa 0,0 l/m 0,6 km/h (0 Bft) N-NO 22 13,4 C 16,4 C 0,0 km/h (0 Bft)
21.06.2013 09:10 15,2 C 91 % 1020,6 hPa 0,0 l/m 0,0 km/h (0 Bft) SO 135 13,7 C 16,9 C 0,0 km/h (0 Bft)
21.06.2013 09:15 15,5 C 91 % 1020,6 hPa 0,0 l/m 0,0 km/h (0 Bft) N 360 14,0 C 17,1 C 0,0 km/h (0 Bft)
21.06.2013 09:20 15,6 C 90 % 1020,6 hPa 0,0 l/m 0,2 km/h (0 Bft) SW 225 14,0 C 17,5 C 0,0 km/h (0 Bft)
21.06.2013 09:25 15,8 C 89 % 1021,0 hPa 0,0 l/m 0,2 km/h (0 Bft) W-NW 292 14,0 C 17,8 C 0,0 km/h (0 Bft)
21.06.2013 09:30 16,3 C 88 % 1021,0 hPa 0,0 l/m 0,2 km/h (0 Bft) O-SO 112 14,3 C 18,4 C 3,2 km/h (1 Bft)
21.06.2013 09:35 16,5 C 88 % 1021,0 hPa 0,0 l/m 0,2 km/h (0 Bft) S 180 14,5 C 18,7 C 0,0 km/h (0 Bft)
21.06.2013 09:40 16,6 C 87 % 1021,0 hPa 0,0 l/m 0,3 km/h (0 Bft) NO 45 14,4 C 19,2 C 0,0 km/h (0 Bft)
21.06.2013 09:45 16,7 C 86 % 1021,3 hPa 0,0 l/m 0,2 km/h (0 Bft) O-NO 67 14,3 C 19,4 C 0,0 km/h (0 Bft)
21.06.2013 09:50 16,9 C 86 % 1021,3 hPa 0,0 l/m 0,2 km/h (0 Bft) S 180 14,5 C 19,6 C 0,0 km/h (0 Bft)
21.06.2013 09:55 16,9 C 85 % 1021,3 hPa 0,0 l/m 0,3 km/h (0 Bft) NO 45 14,4 C 19,7 C 1,8 km/h (1 Bft)
21.06.2013 10:00 17,1 C 82 % 1021,3 hPa 0,0 l/m 0,2 km/h (0 Bft) N-NO 22 14,0 C 20,0 C 0,0 km/h (0 Bft)
21.06.2013 10:05 17,4 C 84 % 1021,3 hPa 0,0 l/m 0,2 km/h (0 Bft) O-SO 112 14,7 C 20,4 C 1,9 km/h (1 Bft)
21.06.2013 10:10 17,5 C 84 % 1021,3 hPa 0,0 l/m 0,3 km/h (0 Bft) O 90 14,8 C 20,7 C 1,8 km/h (1 Bft)
21.06.2013 10:15 17,1 C 80 % 1021,3 hPa 0,0 l/m 1,1 km/h (1 Bft) O-NO 67 13,6 C 20,7 C 1,9 km/h (1 Bft)
21.06.2013 10:20 16,6 C 78 % 1021,3 hPa 0,0 l/m 1,9 km/h (1 Bft) NO 45 12,7 C 20,2 C 1,9 km/h (1 Bft)
21.06.2013 10:25 16,9 C 80 % 1021,3 hPa 0,0 l/m 1,9 km/h (1 Bft) O 90 13,4 C 20,1 C 2,4 km/h (1 Bft)
21.06.2013 10:30 17,1 C 76 % 1021,3 hPa 0,0 l/m 1,4 km/h (1 Bft) O 90 12,8 C 20,2 C 0,0 km/h (0 Bft)
21.06.2013 10:35 17,4 C 77 % 1021,3 hPa 0,0 l/m 1,1 km/h (1 Bft) O-SO 112 13,3 C 20,7 C 0,0 km/h (0 Bft)
21.06.2013 10:40 18,1 C 75 % 1021,3 hPa 0,0 l/m 1,4 km/h (1 Bft) O-NO 67 13,6 C 20,8 C 1,9 km/h (1 Bft)
21.06.2013 10:45 18,5 C 65 % 1021,3 hPa 0,0 l/m 1,6 km/h (1 Bft) O 90 11,8 C 21,3 C 4,7 km/h (1 Bft)
21.06.2013 10:50 19,3 C 67 % 1021,3 hPa 0,0 l/m 1,4 km/h (1 Bft) SO 135 13,0 C 22,0 C 3,7 km/h (1 Bft)
21.06.2013 10:55 19,8 C 67 % 1021,3 hPa 0,0 l/m 1,9 km/h (1 Bft) S-SW 202 13,5 C 22,0 C 3,1 km/h (1 Bft)
21.06.2013 11:00 20,1 C 56 % 1021,3 hPa 0,0 l/m 2,1 km/h (1 Bft) W-NW 292 11,0 C 22,2 C 2,4 km/h (1 Bft)
21.06.2013 11:05 19,3 C 54 % 1021,2 hPa 0,0 l/m 2,3 km/h (1 Bft) O 90 9,8 C 22,0 C 4,3 km/h (1 Bft)
21.06.2013 11:10 20,0 C 51 % 1021,2 hPa 0,0 l/m 2,3 km/h (1 Bft) NO 45 9,6 C 21,9 C 0,0 km/h (0 Bft)
21.06.2013 11:15 21,4 C 47 % 1021,2 hPa 0,0 l/m 2,6 km/h (1 Bft) NW 315 9,6 C 22,8 C 2,7 km/h (1 Bft)
21.06.2013 11:20 23,1 C 47 % 1021,2 hPa 0,0 l/m 1,9 km/h (1 Bft) S 180 11,2 C 24,2 C 1,8 km/h (1 Bft)
21.06.2013 11:25 23,1 C 42 % 1021,4 hPa 0,0 l/m 2,3 km/h (1 Bft) W-NW 292 9,5 C 24,7 C 2,6 km/h (1 Bft)
21.06.2013 11:30 22,0 C 42 % 1021,4 hPa 0,0 l/m 2,9 km/h (1 Bft) N-NO 22 8,5 C 25,3 C 2,7 km/h (1 Bft)
21.06.2013 11:35 21,8 C 44 % 1021,4 hPa 0,0 l/m 2,7 km/h (1 Bft) NW 315 9,0 C 25,2 C 2,9 km/h (1 Bft)
21.06.2013 11:40 23,1 C 42 % 1021,4 hPa 0,0 l/m 2,9 km/h (1 Bft) N-NW 337 9,5 C 24,6 C 3,4 km/h (1 Bft)
21.06.2013 11:45 23,1 C 42 % 1021,4 hPa 0,0 l/m 2,7 km/h (1 Bft) W 270 9,5 C 24,8 C 2,1 km/h (1 Bft)
21.06.2013 11:50 22,6 C 42 % 1021,4 hPa 0,0 l/m 2,9 km/h (1 Bft) N-NO 22 9,0 C 25,2 C 3,2 km/h (1 Bft)
21.06.2013 11:55 22,5 C 42 % 1021,4 hPa 0,0 l/m 2,7 km/h (1 Bft) W-NW 292 8,9 C 25,4 C 8,2 km/h (2 Bft)
21.06.2013 12:00 21,9 C 42 % 1021,4 hPa 0,0 l/m 2,9 km/h (1 Bft) W-SW 247 8,4 C 25,0 C 0,0 km/h (0 Bft)
21.06.2013 12:05 21,4 C 46 % 1021,4 hPa 0,0 l/m 3,2 km/h (1 Bft) W-NW 292 9,3 C 24,6 C 2,7 km/h (1 Bft)
21.06.2013 12:10 22,3 C 45 % 1021,4 hPa 0,0 l/m 3,5 km/h (1 Bft) O-SO 112 9,8 C 24,1 C 6,4 km/h (2 Bft)
21.06.2013 12:15 23,4 C 43 % 1021,4 hPa 0,0 l/m 3,2 km/h (1 Bft) N-NW 337 10,1 C 24,6 C 4,0 km/h (1 Bft)
21.06.2013 12:20 23,3 C 43 % 1021,4 hPa 0,0 l/m 2,9 km/h (1 Bft) W 270 10,0 C 25,6 C 4,2 km/h (1 Bft)
21.06.2013 12:25 23,1 C 45 % 1021,6 hPa 0,0 l/m 3,4 km/h (1 Bft) S 180 10,5 C 25,4 C 3,4 km/h (1 Bft)
21.06.2013 12:30 24,0 C 43 % 1021,6 hPa 0,0 l/m 4,0 km/h (1 Bft) W-SW 247 10,6 C 25,5 C 3,9 km/h (1 Bft)
21.06.2013 12:35 22,8 C 46 % 1021,6 hPa 0,0 l/m 3,9 km/h (1 Bft) W-SW 247 10,6 C 25,8 C 2,1 km/h (1 Bft)
21.06.2013 12:40 22,1 C 48 % 1021,6 hPa 0,0 l/m 4,2 km/h (1 Bft) W 270 10,6 C 24,8 C 4,3 km/h (1 Bft)
21.06.2013 12:45 21,8 C 48 % 1021,7 hPa 0,0 l/m 3,2 km/h (1 Bft) N 360 10,3 C 24,6 C 4,5 km/h (1 Bft)
21.06.2013 12:50 22,1 C 48 % 1021,7 hPa 0,0 l/m 1,3 km/h (1 Bft) S 180 10,6 C 25,0 C 2,1 km/h (1 Bft)
21.06.2013 12:55 22,2 C 47 % 1021,7 hPa 0,0 l/m 1,4 km/h (1 Bft) N-NW 337 10,3 C 25,2 C 1,8 km/h (1 Bft)
21.06.2013 13:00 21,8 C 48 % 1021,7 hPa 0,0 l/m 1,9 km/h (1 Bft) W-NW 292 10,3 C 25,4 C 8,4 km/h (2 Bft)
21.06.2013 13:05 21,2 C 47 % 1021,6 hPa 0,0 l/m 2,3 km/h (1 Bft) N-NO 22 9,4 C 24,7 C 2,7 km/h (1 Bft)
21.06.2013 13:10 22,0 C 48 % 1021,6 hPa 0,0 l/m 1,6 km/h (1 Bft) W 270 10,5 C 25,1 C 0,0 km/h (0 Bft)
21.06.2013 13:15 22,7 C 49 % 1021,6 hPa 0,0 l/m 1,0 km/h (0 Bft) W-SW 247 11,4 C 25,6 C 3,1 km/h (1 Bft)
21.06.2013 13:20 22,6 C 46 % 1021,6 hPa 0,0 l/m 3,1 km/h (1 Bft) S-SW 202 10,4 C 25,2 C 4,5 km/h (1 Bft)
21.06.2013 13:25 22,4 C 47 % 1021,4 hPa 0,0 l/m 3,7 km/h (1 Bft) S 180 10,5 C 25,3 C 7,1 km/h (2 Bft)
21.06.2013 13:30 22,0 C 46 % 1021,4 hPa 0,0 l/m 2,9 km/h (1 Bft) W-SW 247 9,8 C 25,0 C 0,0 km/h (0 Bft)
21.06.2013 13:35 21,5 C 49 % 1021,4 hPa 0,0 l/m 3,7 km/h (1 Bft) S 180 10,3 C 24,5 C 6,4 km/h (2 Bft)
21.06.2013 13:40 23,1 C 46 % 1021,4 hPa 0,0 l/m 4,0 km/h (1 Bft) S 180 10,8 C 24,1 C 7,6 km/h (2 Bft)
21.06.2013 13:45 22,6 C 48 % 1021,4 hPa 0,0 l/m 4,0 km/h (1 Bft) O-SO 112 11,0 C 24,4 C 3,5 km/h (1 Bft)
21.06.2013 13:50 22,7 C 48 % 1021,4 hPa 0,0 l/m 3,4 km/h (1 Bft) N-NO 22 11,1 C 24,7 C 1,8 km/h (1 Bft)
21.06.2013 13:55 21,8 C 47 % 1021,4 hPa 0,0 l/m 2,4 km/h (1 Bft) O-NO 67 10,0 C 25,3 C 4,8 km/h (1 Bft)
21.06.2013 14:00 21,3 C 47 % 1021,4 hPa 0,0 l/m 1,4 km/h (1 Bft) W-NW 292 9,5 C 25,3 C 2,1 km/h (1 Bft)
21.06.2013 14:05 21,9 C 49 % 1021,5 hPa 0,0 l/m 1,4 km/h (1 Bft) NO 45 10,7 C 25,1 C 2,4 km/h (1 Bft)
21.06.2013 14:10 22,6 C 47 % 1021,5 hPa 0,0 l/m 2,6 km/h (1 Bft) W-SW 247 10,7 C 25,7 C 6,1 km/h (2 Bft)
21.06.2013 14:15 22,4 C 48 % 1021,5 hPa 0,0 l/m 4,2 km/h (1 Bft) W-SW 247 10,8 C 25,0 C 6,6 km/h (2 Bft)
21.06.2013 14:20 21,6 C 47 % 1021,5 hPa 0,0 l/m 4,3 km/h (1 Bft) S-SO 157 9,8 C 24,5 C 0,0 km/h (0 Bft)
21.06.2013 14:25 21,4 C 48 % 1021,5 hPa 0,0 l/m 2,4 km/h (1 Bft) O 90 9,9 C 24,7 C 0,0 km/h (0 Bft)
21.06.2013 14:30 22,3 C 48 % 1021,5 hPa 0,0 l/m 2,1 km/h (1 Bft) W-SW 247 10,8 C 24,8 C 5,3 km/h (1 Bft)
21.06.2013 14:35 22,6 C 49 % 1021,5 hPa 0,0 l/m 3,5 km/h (1 Bft) W-SW 247 11,3 C 24,8 C 6,6 km/h (2 Bft)
21.06.2013 14:40 22,8 C 48 % 1021,5 hPa 0,0 l/m 5,3 km/h (1 Bft) S-SW 202 11,2 C 24,4 C 5,8 km/h (2 Bft)
21.06.2013 14:45 24,1 C 45 % 1021,4 hPa 0,0 l/m 5,3 km/h (1 Bft) S 180 11,4 C 24,8 C 6,6 km/h (2 Bft)
21.06.2013 14:50 23,4 C 46 % 1021,4 hPa 0,0 l/m 4,0 km/h (1 Bft) SO 135 11,1 C 25,4 C 3,4 km/h (1 Bft)
21.06.2013 14:55 23,4 C 46 % 1021,4 hPa 0,0 l/m 4,7 km/h (1 Bft) S 180 11,1 C 25,7 C 3,5 km/h (1 Bft)
21.06.2013 15:00 23,1 C 46 % 1021,4 hPa 0,0 l/m 4,2 km/h (1 Bft) S 180 10,8 C 25,4 C 3,9 km/h (1 Bft)
21.06.2013 15:05 23,5 C 46 % 1021,4 hPa 0,0 l/m 3,7 km/h (1 Bft) S 180 11,2 C 25,7 C 7,1 km/h (2 Bft)
21.06.2013 15:10 22,8 C 46 % 1021,4 hPa 0,0 l/m 3,1 km/h (1 Bft) O-SO 112 10,6 C 25,5 C 3,1 km/h (1 Bft)
21.06.2013 15:15 22,8 C 47 % 1021,4 hPa 0,0 l/m 2,9 km/h (1 Bft) S 180 10,9 C 25,5 C 2,6 km/h (1 Bft)
21.06.2013 15:20 22,2 C 48 % 1021,4 hPa 0,0 l/m 3,1 km/h (1 Bft) W 270 10,7 C 25,3 C 6,4 km/h (2 Bft)
21.06.2013 15:25 21,6 C 49 % 1021,2 hPa 0,0 l/m 4,0 km/h (1 Bft) W-NW 292 10,4 C 24,5 C 7,1 km/h (2 Bft)
21.06.2013 15:30 21,1 C 51 % 1021,2 hPa 0,0 l/m 4,0 km/h (1 Bft) N 360 10,6 C 23,6 C 6,1 km/h (2 Bft)
21.06.2013 15:35 20,9 C 52 % 1021,2 hPa 0,0 l/m 3,7 km/h (1 Bft) NW 315 10,7 C 23,3 C 5,8 km/h (2 Bft)
21.06.2013 15:40 20,8 C 52 % 1021,2 hPa 0,0 l/m 3,7 km/h (1 Bft) N-NW 337 10,6 C 22,9 C 4,3 km/h (1 Bft)
21.06.2013 15:45 20,8 C 52 % 1021,2 hPa 0,0 l/m 3,5 km/h (1 Bft) N-NW 337 10,6 C 22,7 C 5,1 km/h (1 Bft)
21.06.2013 15:50 20,8 C 54 % 1021,2 hPa 0,0 l/m 2,7 km/h (1 Bft) NW 315 11,1 C 22,5 C 4,0 km/h (1 Bft)
21.06.2013 15:55 20,8 C 52 % 1021,2 hPa 0,0 l/m 2,9 km/h (1 Bft) W-SW 247 10,6 C 22,3 C 3,2 km/h (1 Bft)
21.06.2013 16:00 21,3 C 53 % 1021,2 hPa 0,0 l/m 3,7 km/h (1 Bft) W 270 11,3 C 22,2 C 5,1 km/h (1 Bft)
21.06.2013 16:05 21,5 C 51 % 1021,3 hPa 0,0 l/m 3,7 km/h (1 Bft) W 270 10,9 C 22,4 C 5,8 km/h (2 Bft)
21.06.2013 16:10 21,6 C 53 % 1021,3 hPa 0,0 l/m 3,4 km/h (1 Bft) S-SW 202 11,6 C 22,5 C 2,1 km/h (1 Bft)
21.06.2013 16:15 21,4 C 52 % 1021,3 hPa 0,0 l/m 2,6 km/h (1 Bft) W 270 11,1 C 22,7 C 0,0 km/h (0 Bft)
21.06.2013 16:20 21,3 C 52 % 1021,3 hPa 0,0 l/m 1,0 km/h (0 Bft) SO 135 11,0 C 23,1 C 0,0 km/h (0 Bft)
21.06.2013 16:25 21,5 C 53 % 1021,5 hPa 0,0 l/m 1,4 km/h (1 Bft) N 360 11,5 C 23,5 C 6,3 km/h (2 Bft)
21.06.2013 16:30 21,0 C 55 % 1021,5 hPa 0,0 l/m 1,8 km/h (1 Bft) N-NW 337 11,6 C 23,2 C 0,0 km/h (0 Bft)
21.06.2013 16:35 21,1 C 53 % 1021,5 hPa 0,0 l/m 1,4 km/h (1 Bft) W-NW 292 11,1 C 23,2 C 3,1 km/h (1 Bft)
21.06.2013 16:40 21,0 C 53 % 1021,5 hPa 0,0 l/m 1,1 km/h (1 Bft) NW 315 11,0 C 22,8 C 0,0 km/h (0 Bft)
21.06.2013 16:45 20,9 C 53 % 1021,2 hPa 0,0 l/m 2,1 km/h (1 Bft) W-SW 247 11,0 C 22,7 C 4,3 km/h (1 Bft)
21.06.2013 16:50 20,9 C 53 % 1021,2 hPa 0,0 l/m 2,4 km/h (1 Bft) W-NW 292 11,0 C 22,5 C 3,1 km/h (1 Bft)
21.06.2013 16:55 20,9 C 54 % 1021,2 hPa 0,0 l/m 2,3 km/h (1 Bft) W-SW 247 11,2 C 22,3 C 0,0 km/h (0 Bft)
21.06.2013 17:00 20,8 C 55 % 1021,2 hPa 0,0 l/m 2,7 km/h (1 Bft) S-SW 202 11,4 C 21,9 C 3,5 km/h (1 Bft)
21.06.2013 17:05 20,8 C 56 % 1021,2 hPa 0,0 l/m 3,4 km/h (1 Bft) W 270 11,7 C 21,7 C 5,1 km/h (1 Bft)
21.06.2013 17:10 20,5 C 55 % 1021,2 hPa 0,0 l/m 3,4 km/h (1 Bft) W-NW 292 11,1 C 21,5 C 2,1 km/h (1 Bft)
21.06.2013 17:15 20,6 C 56 % 1021,2 hPa 0,0 l/m 2,6 km/h (1 Bft) SW 225 11,5 C 21,5 C 1,9 km/h (1 Bft)
21.06.2013 17:20 20,8 C 57 % 1021,2 hPa 0,0 l/m 1,9 km/h (1 Bft) W-NW 292 12,0 C 21,5 C 2,6 km/h (1 Bft)
21.06.2013 17:25 20,6 C 57 % 1021,1 hPa 0,0 l/m 1,9 km/h (1 Bft) S-SW 202 11,8 C 21,6 C 4,3 km/h (1 Bft)
21.06.2013 17:30 20,6 C 57 % 1021,1 hPa 0,0 l/m 2,6 km/h (1 Bft) SW 225 11,8 C 21,6 C 3,5 km/h (1 Bft)
21.06.2013 17:35 20,5 C 58 % 1021,1 hPa 0,0 l/m 3,1 km/h (1 Bft) W-SW 247 11,9 C 21,4 C 3,4 km/h (1 Bft)
21.06.2013 17:40 20,3 C 58 % 1021,1 hPa 0,0 l/m 3,2 km/h (1 Bft) S 180 11,8 C 21,0 C 3,9 km/h (1 Bft)
21.06.2013 17:45 20,0 C 58 % 1020,8 hPa 0,0 l/m 3,1 km/h (1 Bft) S-SW 202 11,5 C 20,8 C 3,7 km/h (1 Bft)
21.06.2013 17:50 19,9 C 58 % 1020,8 hPa 0,0 l/m 2,7 km/h (1 Bft) W-SW 247 11,4 C 20,7 C 2,7 km/h (1 Bft)
21.06.2013 17:55 19,8 C 58 % 1020,8 hPa 0,0 l/m 2,4 km/h (1 Bft) SW 225 11,3 C 20,5 C 2,7 km/h (1 Bft)
21.06.2013 18:00 19,6 C 59 % 1020,8 hPa 0,0 l/m 1,6 km/h (1 Bft) W-NW 292 11,4 C 20,3 C 2,4 km/h (1 Bft)
21.06.2013 18:05 19,5 C 59 % 1020,7 hPa 0,0 l/m 1,8 km/h (1 Bft) W-SW 247 11,3 C 20,2 C 2,1 km/h (1 Bft)
21.06.2013 18:10 19,4 C 59 % 1020,7 hPa 0,0 l/m 1,4 km/h (1 Bft) S-SW 202 11,2 C 20,0 C 0,0 km/h (0 Bft)
21.06.2013 18:15 19,3 C 62 % 1020,7 hPa 0,0 l/m 1,4 km/h (1 Bft) S-SW 202 11,8 C 19,9 C 3,4 km/h (1 Bft)
21.06.2013 18:20 19,0 C 61 % 1020,7 hPa 0,0 l/m 2,1 km/h (1 Bft) NW 315 11,3 C 19,6 C 2,7 km/h (1 Bft)
21.06.2013 18:25 18,8 C 62 % 1020,6 hPa 0,0 l/m 1,8 km/h (1 Bft) S-SW 202 11,4 C 19,4 C 0,0 km/h (0 Bft)
21.06.2013 18:30 18,6 C 62 % 1020,6 hPa 0,0 l/m 0,5 km/h (0 Bft) S 180 11,2 C 19,3 C 0,0 km/h (0 Bft)
21.06.2013 18:35 18,5 C 63 % 1020,6 hPa 0,0 l/m 0,2 km/h (0 Bft) S-SO 157 11,3 C 19,2 C 1,6 km/h (1 Bft)
21.06.2013 18:40 18,4 C 64 % 1020,6 hPa 0,0 l/m 0,0 km/h (0 Bft) S-SW 202 11,5 C 19,2 C 0,0 km/h (0 Bft)
21.06.2013 18:45 18,4 C 64 % 1020,8 hPa 0,0 l/m 0,0 km/h (0 Bft) SO 135 11,5 C 19,2 C 0,0 km/h (0 Bft)
21.06.2013 18:50 18,3 C 65 % 1020,8 hPa 0,0 l/m 0,2 km/h (0 Bft) S-SO 157 11,6 C 19,1 C 0,0 km/h (0 Bft)
21.06.2013 18:55 18,2 C 64 % 1020,8 hPa 0,0 l/m 0,5 km/h (0 Bft) SO 135 11,3 C 19,0 C 1,9 km/h (1 Bft)
21.06.2013 19:00 18,1 C 65 % 1020,8 hPa 0,0 l/m 0,6 km/h (0 Bft) S-SO 157 11,4 C 18,8 C 0,0 km/h (0 Bft)
21.06.2013 19:05 18,0 C 65 % 1021,0 hPa 0,0 l/m 0,3 km/h (0 Bft) O-SO 112 11,3 C 18,7 C 0,0 km/h (0 Bft)
21.06.2013 19:10 17,7 C 66 % 1021,0 hPa 0,0 l/m 0,0 km/h (0 Bft) O-SO 112 11,3 C 18,6 C 0,0 km/h (0 Bft)
21.06.2013 19:15 17,6 C 67 % 1021,0 hPa 0,0 l/m 0,0 km/h (0 Bft) O-SO 112 11,4 C 18,4 C 0,0 km/h (0 Bft)
21.06.2013 19:20 17,6 C 67 % 1021,0 hPa 0,0 l/m 0,0 km/h (0 Bft) SO 135 11,4 C 18,3 C 0,0 km/h (0 Bft)
21.06.2013 19:25 17,5 C 67 % 1021,0 hPa 0,0 l/m 0,2 km/h (0 Bft) SO 135 11,3 C 18,1 C 0,0 km/h (0 Bft)
21.06.2013 19:30 17,5 C 68 % 1021,0 hPa 0,0 l/m 0,3 km/h (0 Bft) O-SO 112 11,5 C 18,1 C 0,0 km/h (0 Bft)
21.06.2013 19:35 17,5 C 69 % 1021,0 hPa 0,0 l/m 0,3 km/h (0 Bft) O-SO 112 11,7 C 18,0 C 0,0 km/h (0 Bft)
21.06.2013 19:40 17,4 C 70 % 1021,0 hPa 0,0 l/m 0,5 km/h (0 Bft) O 90 11,9 C 17,9 C 0,0 km/h (0 Bft)
21.06.2013 19:45 17,5 C 69 % 1021,1 hPa 0,0 l/m 0,3 km/h (0 Bft) S-SO 157 11,7 C 17,9 C 0,0 km/h (0 Bft)
21.06.2013 19:50 17,5 C 69 % 1021,1 hPa 0,0 l/m 1,0 km/h (0 Bft) SO 135 11,7 C 17,9 C 4,7 km/h (1 Bft)
21.06.2013 19:55 17,5 C 69 % 1021,1 hPa 0,0 l/m 1,3 km/h (1 Bft) SO 135 11,7 C 17,9 C 4,8 km/h (1 Bft)
21.06.2013 20:00 17,4 C 70 % 1021,1 hPa 0,0 l/m 2,6 km/h (1 Bft) SW 225 11,9 C 17,8 C 5,6 km/h (1 Bft)
21.06.2013 20:05 17,3 C 70 % 1021,2 hPa 0,0 l/m 2,4 km/h (1 Bft) S-SW 202 11,8 C 17,7 C 0,0 km/h (0 Bft)
21.06.2013 20:10 17,2 C 70 % 1021,2 hPa 0,0 l/m 1,1 km/h (1 Bft) S 180 11,7 C 17,7 C 1,8 km/h (1 Bft)
21.06.2013 20:15 17,2 C 70 % 1021,2 hPa 0,0 l/m 0,8 km/h (0 Bft) O 90 11,7 C 17,6 C 0,0 km/h (0 Bft)
21.06.2013 20:20 17,1 C 71 % 1021,2 hPa 0,0 l/m 0,6 km/h (0 Bft) O-SO 112 11,8 C 17,6 C 1,9 km/h (1 Bft)
21.06.2013 20:25 17,1 C 71 % 1021,0 hPa 0,0 l/m 0,3 km/h (0 Bft) SO 135 11,8 C 17,5 C 0,0 km/h (0 Bft)
21.06.2013 20:30 17,1 C 71 % 1021,0 hPa 0,0 l/m 0,3 km/h (0 Bft) O-SO 112 11,8 C 17,5 C 0,0 km/h (0 Bft)
21.06.2013 20:35 17,0 C 71 % 1021,0 hPa 0,0 l/m 0,3 km/h (0 Bft) O-SO 112 11,7 C 17,4 C 0,0 km/h (0 Bft)
21.06.2013 20:40 16,9 C 71 % 1021,0 hPa 0,0 l/m 0,0 km/h (0 Bft) O 90 11,6 C 17,3 C 1,9 km/h (1 Bft)
21.06.2013 20:45 16,8 C 73 % 1021,1 hPa 0,0 l/m 0,2 km/h (0 Bft) O-NO 67 11,9 C 17,2 C 2,6 km/h (1 Bft)
21.06.2013 20:50 16,6 C 76 % 1021,1 hPa 0,0 l/m 0,6 km/h (0 Bft) N 360 12,3 C 17,0 C 1,6 km/h (1 Bft)
21.06.2013 20:55 16,5 C 74 % 1021,1 hPa 0,0 l/m 0,8 km/h (0 Bft) NO 45 11,8 C 16,9 C 0,0 km/h (0 Bft)
21.06.2013 21:00 16,4 C 74 % 1021,1 hPa 0,0 l/m 0,6 km/h (0 Bft) O-NO 67 11,8 C 16,8 C 2,1 km/h (1 Bft)
21.06.2013 21:05 16,4 C 73 % 1021,1 hPa 0,0 l/m 0,3 km/h (0 Bft) O-NO 67 11,5 C 16,7 C 0,0 km/h (0 Bft)
21.06.2013 21:10 16,2 C 74 % 1021,1 hPa 0,0 l/m 0,2 km/h (0 Bft) O-NO 67 11,6 C 16,3 C 1,6 km/h (1 Bft)
21.06.2013 21:15 16,0 C 75 % 1021,1 hPa 0,0 l/m 0,2 km/h (0 Bft) O-NO 67 11,6 C 16,0 C 0,0 km/h (0 Bft)
21.06.2013 21:20 15,8 C 77 % 1021,1 hPa 0,0 l/m 0,0 km/h (0 Bft) O-NO 67 11,8 C 15,7 C 0,0 km/h (0 Bft)
21.06.2013 21:25 15,8 C 78 % 1021,2 hPa 0,0 l/m 0,0 km/h (0 Bft) O-SO 112 12,0 C 15,6 C 0,0 km/h (0 Bft)
21.06.2013 21:30 15,7 C 78 % 1021,2 hPa 0,0 l/m 0,0 km/h (0 Bft) NO 45 11,9 C 15,6 C 0,0 km/h (0 Bft)
21.06.2013 21:35 15,6 C 79 % 1021,2 hPa 0,0 l/m 0,0 km/h (0 Bft) NO 45 12,0 C 15,6 C 0,0 km/h (0 Bft)
21.06.2013 21:40 15,6 C 79 % 1021,2 hPa 0,0 l/m 0,0 km/h (0 Bft) N-NO 22 12,0 C 15,6 C 0,0 km/h (0 Bft)
21.06.2013 21:45 15,6 C 79 % 1021,4 hPa 0,0 l/m 0,0 km/h (0 Bft) W 270 12,0 C 15,6 C 0,0 km/h (0 Bft)
21.06.2013 21:50 15,5 C 79 % 1021,4 hPa 0,0 l/m 0,0 km/h (0 Bft) W 270 11,9 C 15,6 C 2,1 km/h (1 Bft)
21.06.2013 21:55 15,5 C 80 % 1021,4 hPa 0,0 l/m 0,3 km/h (0 Bft) W 270 12,1 C 15,5 C 0,0 km/h (0 Bft)
21.06.2013 22:00 15,4 C 81 % 1021,4 hPa 0,0 l/m 0,6 km/h (0 Bft) W 270 12,2 C 15,2 C 2,3 km/h (1 Bft)
21.06.2013 22:05 15,2 C 82 % 1021,6 hPa 0,0 l/m 0,5 km/h (0 Bft) S-SW 202 12,1 C 15,0 C 0,0 km/h (0 Bft)
21.06.2013 22:10 15,2 C 82 % 1021,6 hPa 0,0 l/m 0,3 km/h (0 Bft) SO 135 12,1 C 14,9 C 3,4 km/h (1 Bft)
21.06.2013 22:15 15,1 C 83 % 1021,6 hPa 0,0 l/m 0,6 km/h (0 Bft) S-SO 157 12,2 C 14,8 C 0,0 km/h (0 Bft)
21.06.2013 22:20 14,8 C 87 % 1021,6 hPa 0,0 l/m 1,6 km/h (1 Bft) O-SO 112 12,7 C 14,6 C 2,3 km/h (1 Bft)
21.06.2013 22:25 14,6 C 88 % 1021,8 hPa 0,0 l/m 1,4 km/h (1 Bft) SO 135 12,6 C 14,4 C 0,0 km/h (0 Bft)
21.06.2013 22:30 14,5 C 89 % 1021,8 hPa 0,7 l/m 0,5 km/h (0 Bft) O-SO 112 12,7 C 14,4 C 0,0 km/h (0 Bft)
21.06.2013 22:35 14,3 C 90 % 1021,8 hPa 0,0 l/m 0,2 km/h (0 Bft) O-NO 67 12,7 C 14,4 C 0,0 km/h (0 Bft)
21.06.2013 22:40 14,3 C 91 % 1021,8 hPa 0,0 l/m 0,2 km/h (0 Bft) N-NW 337 12,8 C 14,3 C 0,0 km/h (0 Bft)
21.06.2013 22:45 14,3 C 91 % 1022,0 hPa 0,0 l/m 0,0 km/h (0 Bft) N 360 12,8 C 14,3 C 0,0 km/h (0 Bft)
21.06.2013 22:50 14,2 C 91 % 1022,0 hPa 0,0 l/m 0,3 km/h (0 Bft) S 180 12,8 C 14,2 C 0,0 km/h (0 Bft)
21.06.2013 22:55 14,2 C 92 % 1022,0 hPa 0,0 l/m 0,5 km/h (0 Bft) S-SO 157 12,9 C 14,2 C 0,0 km/h (0 Bft)
21.06.2013 23:00 14,2 C 92 % 1022,0 hPa 0,7 l/m 0,2 km/h (0 Bft) O 90 12,9 C 14,2 C 0,0 km/h (0 Bft)
21.06.2013 23:05 14,1 C 92 % 1021,8 hPa 0,0 l/m 0,0 km/h (0 Bft) NO 45 12,8 C 14,1 C 0,0 km/h (0 Bft)
21.06.2013 23:10 14,1 C 92 % 1021,8 hPa 0,0 l/m 0,5 km/h (0 Bft) N-NW 337 12,8 C 14,1 C 0,0 km/h (0 Bft)
21.06.2013 23:15 14,1 C 92 % 1021,8 hPa 0,0 l/m 0,5 km/h (0 Bft) NO 45 12,8 C 14,0 C 0,0 km/h (0 Bft)
21.06.2013 23:20 14,1 C 93 % 1021,8 hPa 0,0 l/m 0,3 km/h (0 Bft) S-SO 157 13,0 C 13,9 C 0,0 km/h (0 Bft)
21.06.2013 23:25 14,0 C 93 % 1021,8 hPa 0,0 l/m 0,3 km/h (0 Bft) O 90 12,9 C 13,9 C 0,0 km/h (0 Bft)
21.06.2013 23:30 14,0 C 93 % 1021,8 hPa 0,0 l/m 0,2 km/h (0 Bft) O-NO 67 12,9 C 13,9 C 0,0 km/h (0 Bft)
21.06.2013 23:35 14,0 C 93 % 1021,8 hPa 0,0 l/m 0,0 km/h (0 Bft) O-NO 67 12,9 C 13,9 C 0,0 km/h (0 Bft)
21.06.2013 23:40 13,9 C 93 % 1021,8 hPa 0,0 l/m 0,3 km/h (0 Bft) NO 45 12,8 C 13,9 C 2,9 km/h (1 Bft)
21.06.2013 23:45 13,9 C 93 % 1021,7 hPa 0,0 l/m 0,6 km/h (0 Bft) SO 135 12,8 C 13,9 C 0,0 km/h (0 Bft)
21.06.2013 23:50 14,1 C 93 % 1021,7 hPa 0,0 l/m 1,6 km/h (1 Bft) S-SO 157 13,0 C 13,9 C 2,1 km/h (1 Bft)
21.06.2013 23:55 14,0 C 93 % 1021,7 hPa 0,0 l/m 1,1 km/h (1 Bft) NO 45 12,9 C 14,0 C 0,0 km/h (0 Bft)
_ Min-Zeit 04:20 12:00 00:00 - 23:35 - - 12:00 03:15 23:55
Minimum _ 11,6 C 42 % 1018,1 hPa - 0,0 km/h (0 Bft) - - 8,4 C 10,2 C 0,0 km/h (0 Bft)
_ Max-Zeit 14:45 07:15 23:00 03:20 00:20 - - 10:10 12:35 00:20
Maximum _ 24,1 C 95 % 1022,0 hPa 1,4 l/m 15,9 km/h
S-SW (3 Bft)
- - 14,8 C 25,8 C 33,5 km/h
S-SW (5 Bft)
Durchschnitt _ 16,7 C 74 % 1020,9 hPa #5,5 l/m 2,3 km/h (1 Bft) S - 11,5 C 17,5 C 3,0 km/h (1 Bft)